THY53R LTFM-LSZH

Flight info

Callsign THY53R
Flight time 1h 21m
Altitude 38000
Route VADEN1D/35L VADEN DCT BAKLO DCT XANEX DCT BESLI DCT UTEKA DCT BEDOX DCT ERKIR DCT KPT L856 NEGRA NEGRA2A
Aircraft B77W/H-SDE1E2E3FGHIJ2J3J4J5M1RWXY/LB1D1

Departure

Time 2026-05-05 11:46
Airport İstanbul Airport (LTFM)

Arrival

Time 2026-05-05 13:07
Airport Zürich Airport (LSZH)
Time Latitude Longitude Altitude Speed Heading
2026-05-05 11:17 41.26402 28.73555 339 ft 0 kts 74°
2026-05-05 11:31 41.26401 28.73555 339 ft 0 kts 74°
2026-05-05 11:36 41.26398 28.73538 333 ft 2 kts 71°
2026-05-05 11:36 41.26392 28.73518 333 ft 2 kts 68°
2026-05-05 11:36 41.26385 28.73498 333 ft 2 kts 60°
2026-05-05 11:36 41.26376 28.73480 333 ft 2 kts 44°
2026-05-05 11:37 41.26362 28.73468 333 ft 2 kts
2026-05-05 11:37 41.26348 28.73469 333 ft 1 kts 343°
2026-05-05 11:37 41.26344 28.73470 333 ft 0 kts 342°
2026-05-05 11:41 41.26352 28.73467 339 ft 4 kts 342°
2026-05-05 11:42 41.26410 28.73440 335 ft 12 kts 339°
2026-05-05 11:42 41.26486 28.73404 336 ft 11 kts 341°
2026-05-05 11:42 41.26548 28.73376 335 ft 9 kts 341°
2026-05-05 11:42 41.26596 28.73327 334 ft 9 kts 295°
2026-05-05 11:43 41.26599 28.73243 339 ft 9 kts 269°
2026-05-05 11:43 41.26598 28.73157 335 ft 10 kts 269°
2026-05-05 11:43 41.26597 28.73066 335 ft 10 kts 269°
2026-05-05 11:43 41.26596 28.72973 335 ft 11 kts 269°
2026-05-05 11:44 41.26595 28.72850 335 ft 15 kts 269°
2026-05-05 11:44 41.26592 28.72713 339 ft 15 kts 268°
2026-05-05 11:44 41.26590 28.72580 339 ft 12 kts 269°
2026-05-05 11:44 41.26630 28.72520 334 ft 9 kts 345°
2026-05-05 11:45 41.26652 28.72518 334 ft 0 kts 358°
2026-05-05 11:45 41.26662 28.72517 334 ft 8 kts 358°
2026-05-05 11:45 41.26949 28.72509 334 ft 93 kts 359°
2026-05-05 11:45 41.27996 28.72484 411 ft 198 kts 359°
2026-05-05 11:46 41.29421 28.72424 1933 ft 203 kts 358°
2026-05-05 11:46 41.30925 28.72404 3120 ft 229 kts
2026-05-05 11:46 41.32529 28.72441 4124 ft 233 kts
2026-05-05 11:46 41.34156 28.72464 4856 ft 239 kts
2026-05-05 11:47 41.35827 28.72304 5703 ft 247 kts 341°
2026-05-05 11:47 41.37228 28.70948 6635 ft 257 kts 308°
2026-05-05 11:47 41.38201 28.68918 7486 ft 265 kts 305°
2026-05-05 11:47 41.39186 28.66817 8510 ft 269 kts 306°
2026-05-05 11:48 41.41181 28.62556 10556 ft 277 kts 306°
2026-05-05 11:48 41.42247 28.60292 11003 ft 303 kts 306°
2026-05-05 11:48 41.43431 28.57791 11257 ft 334 kts 306°
2026-05-05 11:49 41.44701 28.55102 11871 ft 350 kts 305°
2026-05-05 11:49 41.46013 28.52319 12785 ft 359 kts 305°
2026-05-05 11:49 41.47353 28.49472 13811 ft 365 kts 305°
2026-05-05 11:49 41.48713 28.46586 14759 ft 370 kts 305°
2026-05-05 11:50 41.50087 28.43669 15719 ft 374 kts 305°
2026-05-05 11:50 41.51481 28.40711 16662 ft 379 kts 305°
2026-05-05 11:50 41.52898 28.37704 17605 ft 385 kts 304°
2026-05-05 11:50 41.54329 28.34665 18532 ft 390 kts 304°
2026-05-05 11:51 41.55706 28.31740 19290 ft 395 kts 304°
2026-05-05 11:51 41.57175 28.28616 20109 ft 399 kts 304°
2026-05-05 11:51 41.58657 28.25461 20919 ft 404 kts 304°
2026-05-05 11:51 41.60160 28.22260 21711 ft 409 kts 304°
2026-05-05 11:52 41.61680 28.19019 22469 ft 414 kts 304°
2026-05-05 11:52 41.63217 28.15737 23215 ft 420 kts 304°
2026-05-05 11:52 41.64776 28.12404 23902 ft 425 kts 304°
2026-05-05 11:52 41.66332 28.09076 24539 ft 429 kts 304°
2026-05-05 11:53 41.67937 28.05634 25226 ft 432 kts 303°
2026-05-05 11:53 41.69532 28.02209 25875 ft 435 kts 304°
2026-05-05 11:53 41.71707 27.97544 26741 ft 440 kts 304°
2026-05-05 11:53 41.74968 27.90531 27964 ft 446 kts 303°
2026-05-05 11:54 41.78269 27.83410 29114 ft 453 kts 304°
2026-05-05 11:54 41.81615 27.76176 30189 ft 459 kts 303°
2026-05-05 11:54 41.85006 27.68828 31000 ft 465 kts 304°
2026-05-05 11:54 41.88392 27.61470 32025 ft 463 kts 304°
2026-05-05 11:55 41.91755 27.54144 33095 ft 460 kts 304°
2026-05-05 11:55 41.95107 27.46827 34067 ft 458 kts 304°
2026-05-05 11:55 41.98436 27.39543 34874 ft 457 kts 304°
2026-05-05 11:55 42.01748 27.32278 35662 ft 455 kts 303°
2026-05-05 11:56 42.05015 27.25095 36365 ft 454 kts 303°
2026-05-05 11:56 42.08720 27.18258 37045 ft 451 kts 313°
2026-05-05 11:56 42.12930 27.11987 37672 ft 452 kts 313°
2026-05-05 11:56 42.17165 27.05698 38087 ft 455 kts 313°
2026-05-05 11:57 42.25721 26.92801 38069 ft 463 kts 313°
2026-05-05 11:57 42.34215 26.79907 38044 ft 453 kts 313°
2026-05-05 11:58 42.42507 26.67270 38048 ft 446 kts 313°
2026-05-05 11:58 42.50754 26.54649 38091 ft 451 kts 313°
2026-05-05 11:59 42.57849 26.40497 38061 ft 463 kts 300°
2026-05-05 11:59 42.63878 26.24958 38046 ft 463 kts 300°
2026-05-05 12:00 42.69852 26.09701 38040 ft 452 kts 300°
2026-05-05 12:00 42.75709 25.94696 38061 ft 448 kts 300°
2026-05-05 12:01 42.81576 25.79583 38058 ft 456 kts 300°
2026-05-05 12:01 42.87495 25.64247 38052 ft 463 kts 300°
2026-05-05 12:02 42.93452 25.48726 38038 ft 457 kts 300°
2026-05-05 12:02 42.99263 25.33508 38012 ft 448 kts 300°
2026-05-05 12:03 43.04992 25.18425 38047 ft 448 kts 299°
2026-05-05 12:03 43.10773 25.03124 38056 ft 457 kts 299°
2026-05-05 12:04 43.15980 24.87112 38048 ft 463 kts 294°
2026-05-05 12:04 43.20675 24.70925 38025 ft 454 kts 294°
2026-05-05 12:05 43.25324 24.55007 38032 ft 446 kts 294°
2026-05-05 12:05 43.29910 24.39218 38061 ft 447 kts 294°
2026-05-05 12:06 43.34541 24.23166 38048 ft 456 kts 294°
2026-05-05 12:06 43.39211 24.06869 38028 ft 457 kts 294°
2026-05-05 12:07 43.44107 23.90958 38028 ft 446 kts 296°
2026-05-05 12:07 43.49100 23.75480 38032 ft 440 kts 296°
2026-05-05 12:08 43.54024 23.59918 38052 ft 447 kts 295°
2026-05-05 12:08 43.58985 23.44127 38041 ft 455 kts 295°
2026-05-05 12:09 43.63990 23.28097 38027 ft 452 kts 295°
2026-05-05 12:09 43.68882 23.12335 38026 ft 442 kts 295°
2026-05-05 12:10 43.73674 22.96808 38036 ft 439 kts 295°
2026-05-05 12:10 43.78489 22.81114 38045 ft 447 kts 295°
2026-05-05 12:11 43.83363 22.65124 38037 ft 452 kts 295°
2026-05-05 12:11 43.88172 22.49249 38017 ft 444 kts 294°
2026-05-05 12:12 43.93263 22.33880 38027 ft 434 kts 301°
2026-05-05 12:12 43.99199 22.19249 38038 ft 437 kts 301°
2026-05-05 12:13 44.05182 22.04305 38044 ft 446 kts 300°
2026-05-05 12:13 44.11203 21.89133 38034 ft 447 kts 300°
2026-05-05 12:14 44.17141 21.74089 38019 ft 438 kts 300°
2026-05-05 12:14 44.22935 21.59340 38019 ft 433 kts 300°
2026-05-05 12:15 44.28713 21.44552 38021 ft 440 kts 299°
2026-05-05 12:15 44.34617 21.29363 38040 ft 449 kts 299°
2026-05-05 12:16 44.40542 21.14032 37999 ft 445 kts 299°
2026-05-05 12:16 44.46342 20.98944 38003 ft 436 kts 299°
2026-05-05 12:17 44.52050 20.84015 38022 ft 436 kts 298°
2026-05-05 12:17 44.54919 20.76483 38024 ft 440 kts 298°
2026-05-05 12:18 44.60747 20.61116 38037 ft 448 kts 298°
2026-05-05 12:18 44.65495 20.48532 38004 ft 450 kts 298°
2026-05-05 12:19 44.72216 20.30622 38013 ft 440 kts 298°
2026-05-05 12:19 44.77866 20.15474 38008 ft 436 kts 298°
2026-05-05 12:20 44.83529 20.00210 38007 ft 445 kts 297°
2026-05-05 12:20 44.88293 19.87304 38008 ft 451 kts 297°
2026-05-05 12:21 44.94079 19.71545 37982 ft 450 kts 297°
2026-05-05 12:21 44.99766 19.55963 37979 ft 441 kts 297°
2026-05-05 12:22 45.05342 19.40603 38011 ft 438 kts 297°
2026-05-05 12:22 45.10940 19.25091 38011 ft 447 kts 297°
2026-05-05 12:23 45.16627 19.09243 37987 ft 454 kts 296°
2026-05-05 12:23 45.22311 18.93313 37983 ft 449 kts 296°
2026-05-05 12:24 45.27837 18.77733 37983 ft 441 kts 296°
2026-05-05 12:24 45.33308 18.62216 38013 ft 441 kts 296°
2026-05-05 12:25 45.38838 18.46442 37985 ft 450 kts 296°
2026-05-05 12:25 45.44442 18.30360 37972 ft 455 kts 296°
2026-05-05 12:26 45.50003 18.14311 37963 ft 447 kts 295°
2026-05-05 12:26 45.55441 17.98515 37960 ft 440 kts 295°
2026-05-05 12:27 45.60817 17.82810 38001 ft 443 kts 295°
2026-05-05 12:27 45.66269 17.66789 37977 ft 451 kts 295°
2026-05-05 12:28 45.71655 17.50862 37984 ft 455 kts 295°
2026-05-05 12:28 45.77109 17.34641 37958 ft 446 kts 294°
2026-05-05 12:29 45.82427 17.18723 37975 ft 439 kts 294°
2026-05-05 12:29 45.87707 17.02823 37989 ft 445 kts 294°
2026-05-05 12:30 45.93064 16.86591 37989 ft 453 kts 294°
2026-05-05 12:30 45.98460 16.70141 37978 ft 453 kts 294°
2026-05-05 12:31 46.03747 16.53922 37975 ft 444 kts 293°
2026-05-05 12:31 46.07198 16.43278 37975 ft 440 kts 293°
2026-05-05 12:32 46.07404 16.42641 37972 ft 440 kts 293°
2026-05-05 12:32 46.11014 16.31454 37987 ft 441 kts 293°
2026-05-05 12:33 46.16130 16.15520 37991 ft 447 kts 293°
2026-05-05 12:33 46.21363 15.99120 37980 ft 452 kts 292°
2026-05-05 12:34 46.26613 15.82567 37971 ft 451 kts 292°
2026-05-05 12:34 46.32296 15.66483 37952 ft 445 kts 296°
2026-05-05 12:35 46.37930 15.50792 37962 ft 440 kts 295°
2026-05-05 12:35 46.43494 15.35017 37966 ft 441 kts 295°
2026-05-05 12:36 46.49097 15.19033 37972 ft 449 kts 295°
2026-05-05 12:36 46.54788 15.02707 37967 ft 455 kts 295°
2026-05-05 12:37 46.60462 14.86334 37948 ft 450 kts 294°
2026-05-05 12:37 46.66011 14.70221 37955 ft 441 kts 294°
2026-05-05 12:38 46.71500 14.54173 37983 ft 446 kts 294°
2026-05-05 12:38 46.77075 14.37776 37976 ft 455 kts 294°
2026-05-05 12:39 46.82691 14.21163 37945 ft 454 kts 294°
2026-05-05 12:39 46.88164 14.04871 37934 ft 446 kts 293°
2026-05-05 12:40 46.93392 13.89203 37934 ft 442 kts 293°
2026-05-05 12:40 46.98812 13.72857 37963 ft 451 kts 293°
2026-05-05 12:41 47.04325 13.56128 37947 ft 458 kts 293°
2026-05-05 12:41 47.09822 13.39352 37905 ft 452 kts 293°
2026-05-05 12:42 47.15181 13.22880 37950 ft 442 kts 292°
2026-05-05 12:42 47.20488 13.06453 37904 ft 450 kts 292°
2026-05-05 12:43 47.25883 12.89651 37886 ft 458 kts 292°
2026-05-05 12:43 47.31313 12.72636 37870 ft 458 kts 292°
2026-05-05 12:44 47.36639 12.55834 37861 ft 447 kts 291°
2026-05-05 12:44 47.41839 12.39313 37804 ft 446 kts 292°
2026-05-05 12:45 47.47094 12.22505 37863 ft 456 kts 291°
2026-05-05 12:45 47.52424 12.05344 37866 ft 461 kts 290°
2026-05-05 12:46 47.54469 11.96415 37825 ft 456 kts 279°
2026-05-05 12:46 47.55676 11.87257 37828 ft 449 kts 278°
2026-05-05 12:46 47.57966 11.69244 37797 ft 441 kts 278°
2026-05-05 12:47 47.60260 11.51474 37809 ft 445 kts 278°
2026-05-05 12:47 47.61419 11.42418 37600 ft 451 kts 278°
2026-05-05 12:47 47.62586 11.33259 36622 ft 447 kts 277°
2026-05-05 12:48 47.63737 11.24182 35716 ft 437 kts 277°
2026-05-05 12:48 47.64689 11.16617 34956 ft 430 kts 277°
2026-05-05 12:48 47.65787 11.07812 34015 ft 425 kts 276°
2026-05-05 12:48 47.66851 10.99231 33015 ft 419 kts 276°
2026-05-05 12:49 47.67891 10.90792 32060 ft 414 kts 276°
2026-05-05 12:49 47.68917 10.82417 31185 ft 408 kts 275°
2026-05-05 12:49 47.69916 10.74215 30400 ft 401 kts 275°
2026-05-05 12:49 47.70895 10.66115 29550 ft 396 kts 275°
2026-05-05 12:50 47.71858 10.58100 28644 ft 391 kts 275°
2026-05-05 12:50 47.72803 10.50185 27816 ft 389 kts 275°
2026-05-05 12:50 47.73642 10.43124 27037 ft 387 kts 275°
2026-05-05 12:50 47.74491 10.35298 26214 ft 380 kts 270°
2026-05-05 12:51 47.74491 10.27536 25389 ft 373 kts 263°
2026-05-05 12:51 47.74275 10.19883 24598 ft 369 kts 263°
2026-05-05 12:51 47.74077 10.12272 23829 ft 367 kts 264°
2026-05-05 12:51 47.73895 10.04713 22940 ft 365 kts 264°
2026-05-05 12:52 47.73710 9.97283 22069 ft 363 kts 264°
2026-05-05 12:52 47.73518 9.89818 21220 ft 360 kts 264°
2026-05-05 12:52 47.73320 9.82312 20388 ft 357 kts 264°
2026-05-05 12:52 47.73126 9.75076 19592 ft 355 kts 264°
2026-05-05 12:53 47.72924 9.67773 18800 ft 352 kts 264°
2026-05-05 12:53 47.72543 9.60679 17777 ft 330 kts 259°
2026-05-05 12:53 47.71909 9.54131 16643 ft 315 kts 259°
2026-05-05 12:53 47.71335 9.48319 16035 ft 315 kts 259°
2026-05-05 12:54 47.70713 9.41842 15261 ft 317 kts 259°
2026-05-05 12:54 47.70405 9.38610 14895 ft 316 kts 259°
2026-05-05 12:54 47.70100 9.35384 14527 ft 315 kts 260°
2026-05-05 12:55 47.69798 9.32171 14159 ft 313 kts 260°
2026-05-05 12:55 47.69498 9.28989 13869 ft 310 kts 260°
2026-05-05 12:55 47.69199 9.25824 13508 ft 309 kts 260°
2026-05-05 12:55 47.68900 9.22664 13099 ft 308 kts 260°
2026-05-05 12:56 47.68606 9.19568 12738 ft 307 kts 260°
2026-05-05 12:56 47.68304 9.16400 12375 ft 305 kts 260°
2026-05-05 12:56 47.68011 9.13328 12017 ft 304 kts 259°
2026-05-05 12:56 47.67715 9.10236 11652 ft 302 kts 259°
2026-05-05 12:57 47.67419 9.07159 11293 ft 297 kts 259°
2026-05-05 12:57 47.67166 9.04516 10982 ft 292 kts 259°
2026-05-05 12:57 47.66878 9.01535 10652 ft 291 kts 259°
2026-05-05 12:57 47.66591 8.98568 10317 ft 290 kts 259°
2026-05-05 12:58 47.66307 8.95640 10181 ft 282 kts 258°
2026-05-05 12:58 47.66030 8.92796 10037 ft 274 kts 258°
2026-05-05 12:58 47.65786 8.90276 9791 ft 265 kts 258°
2026-05-05 12:58 47.65520 8.87570 9479 ft 265 kts 258°
2026-05-05 12:59 47.65253 8.84867 9144 ft 264 kts 258°
2026-05-05 12:59 47.64988 8.82175 8827 ft 264 kts 258°
2026-05-05 12:59 47.64727 8.79527 8535 ft 262 kts 259°
2026-05-05 13:00 47.64193 8.74141 7905 ft 261 kts 259°
2026-05-05 13:00 47.63931 8.71507 7592 ft 261 kts 259°
2026-05-05 13:01 47.63140 8.63574 6679 ft 258 kts 260°
2026-05-05 13:01 47.62877 8.60949 6368 ft 255 kts 260°
2026-05-05 13:01 47.62616 8.58350 6078 ft 255 kts 260°
2026-05-05 13:01 47.62353 8.55750 5741 ft 256 kts 260°
2026-05-05 13:02 47.62092 8.53162 5610 ft 248 kts 261°
2026-05-05 13:02 47.61842 8.50658 5459 ft 243 kts 261°
2026-05-05 13:02 47.61594 8.48240 5377 ft 234 kts 261°
2026-05-05 13:02 47.61362 8.45924 5147 ft 225 kts 261°
2026-05-05 13:03 47.61139 8.43742 4950 ft 203 kts 261°
2026-05-05 13:03 47.60699 8.41866 4673 ft 187 kts 231°
2026-05-05 13:03 47.59621 8.40927 4451 ft 183 kts 191°
2026-05-05 13:03 47.58355 8.41263 4136 ft 192 kts 160°
2026-05-05 13:04 47.57177 8.42082 4037 ft 185 kts 154°
2026-05-05 13:04 47.56092 8.43132 4007 ft 182 kts 148°
2026-05-05 13:04 47.55117 8.44191 3991 ft 166 kts 142°
2026-05-05 13:04 47.54334 8.45325 3582 ft 162 kts 138°
2026-05-05 13:05 47.53595 8.46327 3182 ft 156 kts 139°
2026-05-05 13:05 47.52822 8.47360 2961 ft 147 kts 141°
2026-05-05 13:05 47.52038 8.48418 2796 ft 157 kts 140°
2026-05-05 13:05 47.51489 8.49138 2628 ft 161 kts 143°
2026-05-05 13:06 47.50413 8.50615 2262 ft 155 kts 140°
2026-05-05 13:06 47.49622 8.51676 1924 ft 151 kts 138°
2026-05-05 13:06 47.48869 8.52713 1620 ft 145 kts 138°
2026-05-05 13:06 47.48126 8.53727 1441 ft 147 kts 138°
2026-05-05 13:07 47.47427 8.54681 1405 ft 121 kts 137°
2026-05-05 13:07 47.46913 8.55378 1402 ft 78 kts 137°
2026-05-05 13:07 47.46624 8.55773 1408 ft 44 kts 137°
2026-05-05 13:07 47.46469 8.55920 1410 ft 37 kts 160°
2026-05-05 13:08 47.46242 8.56002 1414 ft 22 kts 171°
2026-05-05 13:08 47.46091 8.55991 1415 ft 22 kts 186°
2026-05-05 13:08 47.45967 8.55969 1414 ft 9 kts 196°
2026-05-05 13:08 47.45941 8.55920 1417 ft 10 kts 253°
2026-05-05 13:09 47.45943 8.55812 1411 ft 11 kts 275°
2026-05-05 13:09 47.45951 8.55685 1410 ft 13 kts 275°
2026-05-05 13:09 47.45970 8.55633 1413 ft 5 kts 341°
2026-05-05 13:09 47.46011 8.55638 1410 ft 6 kts
2026-05-05 13:10 47.46035 8.55642 1414 ft 0 kts